Regional Weather Roundup
Issued by NWS Newport/Morehead, NC

Current Version | Previous Version | Text Only | Print | Product List | Glossary On
Versions: 1 2 3 4 5 6 7 8 9 10 11 12 13 14 15 16 17 18 19 20 21 22 23 24 25 26 27 28 29 30 31 32 33 34 35 36 37 38 39 40 41 42 43 44 45 46 47 48 49 50
000
ASUS42 KMHX 011422
RWRMHX
WEATHER ROUNDUP FOR EASTERN NORTH CAROLINA
NATIONAL WEATHER SERVICE NEWPORT/MOREHEAD CITY NC
1000 AM EDT FRI AUG 01 2014

NOTE: "FAIR" INDICATES FEW OR NO CLOUDS BELOW 12,000 FEET
WITH NO SIGNIFICANT WEATHER AND/OR OBSTRUCTIONS TO VISIBILITY

NCZ015>017-031-032-045>047-102-103-011500-
NORTH COAST

CITY           SKY/WX    TMP DP  RH WIND       PRES   REMARKS
EDENTON        DRIZZLE   74  71  93 NE6       30.13F
ELIZABETH CITY CLOUDY    76  70  82 E7        30.15S
KITTY HAWK     CLOUDY    76  69  79 E7        30.14S
MANTEO         NOT AVBL

$$

NCZ045>047-081-094-103-104-011500-
CENTRAL COAST

CITY           SKY/WX    TMP DP  RH WIND       PRES   REMARKS
FRISCO         CLOUDY    80  76  87 E10       30.11S
SWANQUARTER      N/A     73 N/A N/A NE6       30.09R

$$

NCZ095-097-098-100-101-011500-
SOUTHERN COAST

CITY           SKY/WX    TMP DP  RH WIND       PRES   REMARKS
BEAUFORT       CLOUDY    79  76  90 NE3       30.08R
CEDAR ISLAND     N/A     79 N/A N/A E14       30.12S
JACKSONVILLE   CLOUDY    75  72  90 E9        30.07F
NEWPORT        NOT AVBL
PINEY ISLAND   CLOUDY    80  80 100 E14G20    30.08S
WILMINGTON     HVY RAIN  75  73  93 E3        30.06R FOG


$$

NCZ011>013-027>030-043-044-078>080-089-090>093-098-011500-
COASTAL PLAIN

CITY           SKY/WX    TMP DP  RH WIND       PRES   REMARKS
AHOSKIE        CLOUDY    72  68  87 CALM      30.15S
CLINTON        DRIZZLE   71  71  99 NE3       30.09F
ELIZABETHTOWN  CLOUDY    73  73 100 CALM      30.07F
GOLDSBORO      LGT RAIN  72  70  94 NE13      30.10R FOG
GREENVILLE     RAIN      72  70  94 NE8       30.13F
HAVELOCK       LGT RAIN  75  72  90 E3        30.10R
KENANSVILLE    LGT RAIN  71  69  94 CALM      30.11S
KINSTON        HVY RAIN  72  70  94 NE7       30.10F
NEW BERN       LGT RAIN  75  72  88 E5        30.11S
RICHLANDS      CLOUDY    73  70  88 NE8       30.09R
ROANOKE RAPIDS NOT AVBL
ROCKY MOUNT    CLOUDY    73  68  84 NE9       30.12F
WASHINGTON     CLOUDY    71  69  93 NE9       30.11F
WHITEVILLE     CLOUDY    74  72  93 NE5       30.06R

$$

AMZ130-135-150-152-154-156-158-170-250-252-270-ANZ085-086-088-633-658-670-011500-
MARINE OBSERVATIONS

STATION/POSITION TIME  TEMP    WIND        PRES    WAVE   SWELL
                       AIR SEA DIR/SP/G            HT/PER HT/PER
                 (UTC) (F)     (DEG/KT/KT) (MB)    (FT/S) (FT/S)
CHESAPEAKE LIGHT NOT AVBL
BUOY 44014       1400   77 78   70/ 12/ 14 1021.2    2/ 7   2/ 7
DUCK             1400   77 76   70/ 14/ 15 1020.4
2E DUCK          1400                        N/A     3/ 6
OREGON INLET     1400   77 78   60/ 12/ 17 1020.4
BUOY 44095       1400      78                N/A     4/ 7
20E OREGON INLET NOT AVBL
HATTERAS CG      1400   80 79  100/  9/ 13 1019.7
DIAMOND BUOY     1400          VRB 14/ 16  1019.1    4/ 5   2/ 7
CAPE LOOKOUT     1400   80     130/ 11/ 12 1018.3
BEAUFORT LAB     1400   78 81   90/  3/  5 1018.0
30 SE NEW RIVER  1400   78 81  150/ 17/ 19 1017.7    4/ 7   2/14
5 SE WRIGHTSVILL 1400   74 81  100/ 12/ 14   N/A
BUOY 41002       1324   81 81  160/ 14/ 16 1019.3    4/ 7   2/ 7
BUOY 41004       1400   76 83  150/ 17/ 19 1015.3    4/ 5   2/14

$$



USA.gov is the U.S. government's official web portal to all federal, state and local government web resources and services.